Weather History for Pottstown, PA

Change the Weather History Date:

Saturday, March 2, 2013

  Actual Average (KRDG) Record (KRDG)
Temperature  
Mean Temperature 34 °F 36 °F  
Max Temperature 37 °F 46 °F 72 °F (1972)
Min Temperature 32 °F 27 °F 9 °F (1980)
Degree Days  
Heating Degree Days 30 29  
Month to date heating degree days 58  
Since 1 July heating degree days 4100  
Cooling Degree Days 0 0  
Month to date cooling degree days 0  
Year to date cooling degree days 0  
Moisture  
Dew Point 22 °F    
Average Humidity 59    
Maximum Humidity 66    
Minimum Humidity 53    
Precipitation  
Precipitation 0.00 in 0.08 in 1.37 in (2007)
Month to date precipitation 0.16  
Year to date precipitation 5.69  
Sea Level Pressure  
Sea Level Pressure 29.81 in    
Wind  
Wind Speed 9 mph (NW)    
Max Wind Speed 15 mph    
Max Gust Speed 20 mph    
Visibility 10 miles    
Events      
T = Trace of Precipitation, MM = Missing Value Source: NWS Daily Summary

Daily Weather History Graph

Daily Weather History Graph

Search for Another Location

Airport:

Trip Planner

Search our weather history database for the weather conditions in past years. The results will help you decide how hot, cold, wet, or windy it might be!

Date:

Astronomy

Mar. 02, 2013 Rise Set
Actual Time 6:33 AM EST 5:55 PM EST
Civil Twilight 6:06 AM EST 6:22 PM EST
Nautical Twilight 5:35 AM EST 6:54 PM EST
Astronomical Twilight 5:03 AM EST 7:25 PM EST
Moon 11:32 PM EST (3/2) 8:59 AM EST (3/2)
Length of Visible Light 12h 15m
Length of Day
11h 21m
Waning Gibbous, 74% of the Moon is Illuminated
Mar 2
Waning Gibbous
Mar 4
Last Quarter
Mar 11
New
Mar 19
First Quarter
Mar 27
Full

Hourly Weather History & Observations

Time (EST) Temp. Windchill Dew Point Humidity Pressure Visibility Wind Dir Wind Speed Gust Speed Precip Events Conditions
12:54 AM 35.1 °F 31.0 °F 23.0 °F 61% 29.83 in 10.0 mi NNW 4.6 mph - N/A   Overcast
1:54 AM 35.1 °F 27.4 °F 23.0 °F 61% 29.83 in 10.0 mi NNW 10.4 mph - N/A   Overcast
2:54 AM 33.1 °F 25.5 °F 23.0 °F 66% 29.83 in 10.0 mi NNW 9.2 mph - N/A   Overcast
3:54 AM 33.1 °F 25.5 °F 21.9 °F 64% 29.83 in 10.0 mi NNW 9.2 mph - N/A   Overcast
4:54 AM 33.1 °F 25.5 °F 21.0 °F 61% 29.83 in 10.0 mi NW 9.2 mph - N/A   Overcast
6:54 AM 32.0 °F 24.2 °F 21.9 °F 66% 29.84 in 10.0 mi NW 9.2 mph - N/A   Overcast
7:54 AM 33.1 °F 26.9 °F 21.9 °F 64% 29.85 in 10.0 mi NW 6.9 mph - N/A   Overcast
8:54 AM 34.0 °F 25.5 °F 21.9 °F 61% 29.83 in 10.0 mi NW 11.5 mph - N/A   Overcast
9:54 AM 35.1 °F 26.4 °F 21.9 °F 59% 29.82 in 10.0 mi NW 12.7 mph 19.6 mph N/A   Overcast
10:54 AM 37.9 °F 30.5 °F 23.0 °F 55% 29.81 in 10.0 mi North 11.5 mph - N/A   Mostly Cloudy
11:54 AM 37.9 °F 33.5 °F 23.0 °F 55% 29.81 in 10.0 mi NW 5.8 mph - N/A   Overcast
12:54 PM 37.9 °F 32.7 °F 21.9 °F 53% 29.78 in 10.0 mi NNW 6.9 mph - N/A   Overcast
1:54 PM 37.9 °F 30.9 °F 23.0 °F 55% 29.76 in 10.0 mi NNW 10.4 mph - N/A   Overcast
2:54 PM 37.9 °F 29.2 °F 23.0 °F 55% 29.76 in 10.0 mi WNW 15.0 mph - N/A   Overcast
3:54 PM 37.0 °F 28.1 °F 21.9 °F 54% 29.76 in 10.0 mi NW 15.0 mph - N/A   Overcast
4:54 PM 36.0 °F 28.5 °F 21.9 °F 57% 29.77 in 10.0 mi NNW 10.4 mph - N/A   Overcast
5:54 PM 35.1 °F 26.9 °F 21.9 °F 59% 29.78 in 10.0 mi NNW 11.5 mph - N/A   Overcast
6:54 PM 34.0 °F 28.0 °F 21.0 °F 59% 29.80 in 10.0 mi NNW 6.9 mph - N/A   Overcast
7:54 PM 34.0 °F - 21.0 °F 59% 29.79 in 10.0 mi Calm Calm - N/A   Overcast
8:54 PM 34.0 °F 28.8 °F 21.0 °F 59% 29.80 in 10.0 mi NNW 5.8 mph - N/A   Overcast
9:54 PM 33.1 °F 24.9 °F 19.9 °F 59% 29.81 in 10.0 mi NW 10.4 mph - N/A   Overcast
10:54 PM 32.0 °F 24.2 °F 19.9 °F 61% 29.80 in 10.0 mi NNW 9.2 mph - N/A   Overcast
11:54 PM 32.0 °F 26.4 °F 19.9 °F 61% 29.80 in 10.0 mi NNW 5.8 mph - N/A   Overcast